Location: Newark
(39.9581°N, 97.2014°W)
Time: 10:07:35
(UTC+00:00)

Vanguard 2 Rocket - All Passes

Search period start: 19 February 2020 00:00
Search period end: 29 February 2020 00:00
Orbit: 554 x 3327 km, 32.9° (Epoch: 19 February)

Date Brightness Start Highest point End Pass type
(mag) Time Alt. Az. Time Alt. Az. Time Alt. Az.
19 Feb - 02:11:28 10° SW 02:27:19 41° SSE 02:37:34 10° E visible
19 Feb - 04:28:27 10° WSW 04:42:32 56° S 04:50:28 10° E visible
19 Feb - 06:46:34 10° W 06:56:21 47° SSW 07:02:04 10° SE visible
19 Feb - 09:04:39 10° WSW 09:08:19 15° SW 09:11:17 10° S night (unlit)
19 Feb - 23:02:16 10° SSE 23:10:23 14° SE 23:17:43 10° ESE daylight
20 Feb - 01:10:19 10° SSW 01:26:20 35° SSE 01:37:37 10° E visible
20 Feb - 03:26:13 10° WSW 03:42:04 54° S 03:51:22 10° E visible
20 Feb - 05:44:31 10° W 05:56:39 55° S 06:03:27 10° ESE visible
20 Feb - 08:02:36 10° W 08:09:23 27° SSW 08:13:57 10° SSE night (unlit)
21 Feb - 00:09:55 10° SSW 00:25:10 29° SSE 00:37:02 10° E visible
21 Feb - 02:24:09 10° SW 02:41:16 50° SSE 02:51:59 10° E visible
21 Feb - 04:42:10 10° WSW 04:56:35 60° S 05:04:38 10° ESE visible
21 Feb - 07:00:40 10° W 07:10:10 39° SSW 07:15:53 10° SE visible
21 Feb - 23:10:34 10° S 23:23:59 22° SE 23:35:28 10° E daylight
22 Feb - 01:22:30 10° SW 01:40:10 45° SSE 01:52:15 10° E visible
22 Feb - 03:39:42 10° WSW 03:56:06 61° S 04:05:35 10° E visible
22 Feb - 05:58:29 10° W 06:10:35 51° SSW 06:17:26 10° ESE visible
22 Feb - 08:17:21 10° W 08:22:51 19° SW 08:26:53 10° S night (unlit)
22 Feb - 22:12:59 10° SSE 22:22:52 16° SE 22:32:05 10° ESE daylight
23 Feb - 00:21:28 10° SSW 00:38:51 39° SSE 00:52:01 10° E visible
23 Feb - 02:37:20 10° WSW 02:55:13 59° S 03:06:15 10° E visible
23 Feb - 04:56:02 10° W 05:10:34 59° S 05:18:43 10° ESE visible
23 Feb - 07:14:55 10° W 07:23:47 31° SSW 07:29:23 10° SSE night (unlit)
23 Feb - 23:21:14 10° SSW 23:37:30 32° SE 23:51:07 10° E daylight
24 Feb - 01:35:18 10° SW 01:54:01 54° SSE 02:06:36 10° E visible
24 Feb - 03:53:25 10° WSW 04:10:06 64° S 04:19:43 10° ESE visible
24 Feb - 06:12:33 10° W 06:24:21 44° SSW 06:31:15 10° SE visible
24 Feb - 08:33:23 10° WSW 08:36:06 12° SW 08:38:27 10° SSW night (unlit)
24 Feb - 22:22:05 10° S 22:36:13 24° SE 22:49:13 10° E daylight
25 Feb - 00:33:49 10° SW 00:52:33 48° SSE 01:06:33 10° E visible
25 Feb - 02:50:51 10° WSW 03:09:11 64° S 03:20:25 10° E visible
25 Feb - 05:10:00 10° W 05:24:27 55° SSW 05:32:40 10° ESE visible
25 Feb - 07:29:33 10° W 07:37:09 23° SW 07:42:24 10° S night (unlit)
25 Feb - 21:24:36 10° SSE 21:35:09 17° SE 21:45:32 10° ESE daylight
25 Feb - 23:33:02 10° SSW 23:51:00 41° SSE 00:05:58 10° E daylight
26 Feb - 01:48:33 10° WSW 02:07:53 62° S 02:20:50 10° E visible
26 Feb - 04:07:17 10° W 04:24:03 62° S 04:33:46 10° ESE visible
26 Feb - 06:26:46 10° W 06:37:53 35° SSW 06:44:43 10° SSE visible
26 Feb - 22:33:07 10° SSW 22:49:31 34° SE 23:04:40 10° E daylight
27 Feb - 00:46:44 10° SW 01:06:17 57° SSE 01:20:50 10° E visible
27 Feb - 03:04:36 10° WSW 03:23:09 66° S 03:34:32 10° ESE visible
27 Feb - 05:24:01 10° W 05:38:09 47° SSW 05:46:25 10° SE visible
27 Feb - 07:45:01 10° W 07:50:19 15° SW 07:54:27 10° SSW night (unlit)
27 Feb - 21:34:15 10° S 21:48:17 26° SE 22:02:20 10° E daylight
27 Feb - 23:45:34 10° SW 00:04:33 51° SSE 00:20:24 10° E daylight
28 Feb - 02:02:08 10° WSW 02:21:48 66° S 02:34:57 10° E visible
28 Feb - 04:21:14 10° W 04:37:53 58° SSW 04:47:42 10° ESE visible
28 Feb - 06:41:17 10° W 06:51:11 26° SW 06:57:45 10° SSE visible
28 Feb - 20:37:01 10° SSE 20:47:21 17° SE 20:58:14 10° E daylight
28 Feb - 22:45:08 10° SSW 23:02:51 43° SSE 23:19:23 10° E daylight
